Погода в Гуарульюсе

Бразилия     23°26′36″S   46°30′27″W
темп.,
°C
ветер,
м/с
пор.,
м/с
влажн.,
%
обл.,
%
осадки,
мм/ч
давл.,
гПа
погр.,
м
27 февраля, сб
сб2700:00+20всв3785100 1.0 1014427
03:00+19всв258792 1.0 1013374
06:00+19всв238765 0.0 1014300
09:00+22всв226664 0.0 1015573
12:00+26всв335155 0.9 10151155
15:00+27в445259 4.1 10131232
18:00+23в466985 6.4 1013774
21:00+22в357390 9.9 1014580
28 февраля, вс
вс2800:00+21в3473100 1.1 1015442
03:00+21всв3573100 1.1 1013402
06:00+20св257895 0.0 1014315
09:00+21св237193 0.0 1014328
12:00+28с254156 0.0 10141606
15:00+28ссв444545 0.3 10121367
18:00+24вюв446299 3.4 1012661
21:00+23в357097 9.0 1013311
1 марта, пн
пн100:00+21всв367689 0.5 1013329
03:00+20св368062 0.5 1012297
06:00+20ссв24815 0.0 1013171
09:00+24с365951 0.0 1013609
12:00+29с444238 0.6 10131670
15:00+30с333723 0.6 10111952
18:00+27з014964 0.8 1011798
21:00+25в236082 1.7 1013540
2 марта, вт
вт200:00+24всв236399 0.0 1013295
03:00+22ссв237186 0.0 1012194
06:00+21с237298 0.0 1013161
09:00+25с365799 0.0 1014616
12:00+29ссз444497 0.1 10141604
15:00+30ссз444381 0.9 10121594
18:00+26вюв1253100 4.7 1012684
21:00+24в3461100 6.1 1014415
3 марта, ср
ср300:00+24св2364100 0.3 1015253
03:00+23ссв2370100 0.9 1014131
06:00+22с1170100 2.9 101592
09:00+23ссз3767100 6.6 1017500
12:00+24ссз3660100 0.6 10161053
15:00+29сз444484 1.1 10141653
18:00+26ссз2356100 1.9 1013618
21:00+25ссв1261100 2.9 1015465